Location: Stony Creek
(40.9500°S, 175.8500°E)
Time: 10:11:16
(UTC+00:00)

USA 281 - Pass Details

Date: 15 May 2026
Orbit: 1079 x 1080 km, 106.0° (Epoch: 5 January)

Event Time Altitude Azimuth Distance (km) Brightness Sun altitude
Rises 16:27:05 0° 153° (SSE) 3,911 6.5 -32.1°
Reaches altitude 10° 16:29:43 10° 147° (SSE) 2,949 5.9 -31.6°
Maximum altitude 16:36:09 52° 71° (ENE) 1,333 3.9 -30.4°
Drops below altitude 10° 16:42:32 10° 356° (N) 2,918 5.4 -29.2°
Sets 16:45:06 0° 351° (N) 3,867 6.1 -28.7°
